www.pogodaiklimat.ru

Погода и климат >> Архив погоды >> Россия >> Чукотка >> Баимка


ПОГОДА в Баимке

  • Прогноз погоды в Баимке
  • Монитор погоды в Баимке

АРХИВ ПОГОДЫ в Баимке

Время (UTC), дата Ветер
(напр.,м/с)
 
Видим.   Явления Облачность Т
(С)
Тd
(С)
f
(%)
Тe
(С)
Тes
(С)
Комфортность P
(гПа)
Po
(гПа)
Тmin
(С)
Tmax
(С)
R
(мм)
R24
(мм)
S
(см)
03 19.08 ЮЗ 2
{4}
20 км 8/6 600 м
[Cu med, cong Ci fib]
+19.8 +8.0 46 +21 +24 комфорт 1024.1 990.6
06 19.08 С 1
{5}
20 км 8/4 600 м
[Cu med, cong Ci fib]
+20.7 +8.0 44 +23 +24 комфорт 1023.7 990.3
09 19.08 штиль 0
{5}
20 км 9/4 600 м
[Sc diur, vesp Ci fib]
+13.3 +10.3 82 +13 +13 1024.7 990.5 +20.9
12 19.08 ЮВ 3
{3}
20 км 8/3 600 м
[Sc Ci fib]
+8.4 +7.6 95 +6 +6 1025.5 990.6
15 19.08 Ю 2
{4}
20 км 4/1 600 м
[Sc Ci fib]
+4.7 +4.7 100 +2 +2 1025.9 990.6
18 19.08 Ю 2
{5}
20 км 1/0
[Ci fib]
+5.3 +5.3 100 +2 +3 1025.9 990.6
21 19.08 Ю 3
{5}
20 км 1/0
[Ci fib]
+15.6 +8.5 63 +15 +18 1023.6 989.6 +3.1
00 20.08 Ю 1
{6}
20 км ясно +22.4 +7.4 38 +23 +31 комфорт 1021.7 988.5
03 20.08 СЗ 1
{4}
20 км 6/1 1000 м
[Cu hum Ci]
+24.5 +6.8 32 +25 +30 комфорт 1020.0 987.2
06 20.08 штиль 0
{4}
20 км 6/1 1000 м
[Cu hum Ci fib]
+25.2 +5.5 28 +25 +27 комфорт 1018.8 986.1
09 20.08 ЮВ 2
{3}
20 км 8/0
[Ci fib]
+14.9 +10.5 75 +15 +15 1020.0 986.1 +25.2
12 20.08 Ю 3
{4}
20 км 6/0
[Ci fib]
+8.9 +7.3 90 +6 +6 1021.2 986.5
15 20.08 ЮВ 3
{4}
20 км 3/0
[Ci fib]
+7.1 +6.2 94 +4 +4 1020.8 986.0
18 20.08 ЮВ 3
{5}
20 км 3/0
[Ci fib]
+6.1 +5.6 97 +3 +3 1020.8 985.8
21 20.08 Ю 1
{4}
20 км 10/0
[Ci fib]
+17.4 +10.5 64 +18 +21 1018.4 984.9 +6.1
00 21.08 С 2
{4}
20 км 3/3 600 м
[Cu hum]
+23.0 +9.8 43 +25 +29 комфорт 1016.8 983.9
03 21.08 СЗ 3
{7}
20 км 1/1 600 м
[Cu hum]
+24.5 +5.8 30 +24 +29 комфорт 1015.4 982.7
06 21.08 СЗ 3
{8}
20 км ясно +23.4 +4.8 30 +23 +25 комфорт 1014.8 982.0
09 21.08 Ю 1
{6}
20 км 5/0
[Ci fib]
+12.0 +8.8 81 +12 +12 1015.9 981.8 +24.6
12 21.08 Ю 3
{3}
20 км 6/0
[Ci fib]
+7.3 +5.8 90 +4 +4 1017.0 982.3
15 21.08 ЮВ 2
{3}
20 км 4/0
[Ci fib]
+2.7 +2.7 100 -1 -1 1018.0 982.6
18 21.08 ЮВ 1
{5}
20 км 4/0
[Ci fib]
+0.6 +0.6 100 -2 -2 1018.9 983.3
21 21.08 штиль 0
{3}
20 км 6/1 1000 м
[Sc Ci fib]
+13.4 +9.7 78 +13 +16 1017.8 983.8 +0.3
00 22.08 С 2
{6}
20 км 8/1 600 м
[Cu hum Cc]
+17.5 +8.1 54 +18 +23 1017.2 983.7
03 22.08 С 4
{7}
20 км 8/0
[Ac trans Cc]
+19.9 +6.7 42 +21 +24 комфорт 1016.8 983.5
06 22.08 СЗ 3
{8}
20 км 8/1 600 м
[Cu hum Ci fib]
+19.5 +5.5 40 +20 +21 1016.7 983.4
09 22.08 штиль 0
{7}
20 км 9/0
[Ci fib]
+12.1 +8.5 79 +12 +12 1018.4 984.2 +20.3
12 22.08 ЮВ 2
{3}
20 км 9/0
[Ci fib]
+2.5 +2.5 100 -1 -1 1020.7 985.2
15 22.08 ЮВ 2
{3}
20 км 10/0
[Ac trans Ci fib]
+1.8 +1.8 100 -2 -2 1021.2 985.7
18 22.08 Ю 1
{3}
20 км 3/0
[Ci fib]
+0.4 +0.4 100 -2 -2 1021.9 986.2
21 22.08 С 1
{3}
4000 м дымка ясно +6.9 +5.6 91 +6 +9 1020.9 986.1 +0.1
00 23.08 С 3
{5}
4000 м дымка 1/1 600 м
[Cu hum]
+13.6 +8.6 72 +13 +17 1019.1 985.1
03 23.08 С 3
{7}
20 км 1/1 600 м
[Cu med, cong]
+19.2 +7.7 47 +20 +24 1017.0 983.6
06 23.08 В 3
{7}
20 км ясно +20.0 +3.2 33 +21 +22 комфорт 1015.6 982.4
09 23.08 штиль 0
{7}
20 км ясно +10.4 +5.9 74 +10 +10 1016.7 982.3 +20.3
12 23.08 ЮВ 3
{3}
20 км ясно +1.7 +1.7 100 -3 -3 1017.9 982.4
15 23.08 ЮВ 3
{4}
20 км ясно +1.0 +1.0 100 -4 -4 1017.5 982.0
18 23.08 Ю 2
{4}
4000 м дымка 3/0
[Ci fib]
+0.1 +0.1 100 -4 -4 1016.7 981.1
21 23.08 ЮВ 1
{4}
4000 м дымка 10/0
[Ci fib]
+12.1 +7.6 74 +12 +15 1013.9 979.9 -1.0
00 24.08 С 2
{4}
20 км 10/0
[Cs]
+19.2 +7.7 47 +20 +26 1011.8 978.6
03 24.08 З 3
{6}
10 км дым 10/0
[Ac lent Cs]
+24.2 +3.2 25 +23 +26 комфорт 1009.5 977.0
06 24.08 З 2
{6}
10 км дым 10/0
[Ac lent Cs]
+24.0 +2.9 25 +23 +24 комфорт 1008.5 976.0
09 24.08 ЮВ 1
{4}
20 км 10/0
[Ac trans Ci fib]
+13.6 +8.2 70 +14 +14 1009.4 975.7 +24.4
12 24.08 ЮВ 3
{4}
10 км дым 10/0
[Ac trans Ci fib]
+9.6 +5.1 74 +7 +7 1009.8 975.6
15 24.08 ЮВ 3
{5}
10 км дым 10/6 600 м
[Sc Ac trans Ci fib]
+9.4 +5.6 77 +7 +7 1009.3 975.0
18 24.08 ЮВ 2
{4}
10 км дым 9/9 600 м
[Sc]
+11.1 +6.8 75 +10 +10 1008.1 974.2
21 24.08 ЮВ 2
{4}
10 км дым 8/4 600 м
[Sc Ac trans]
+19.3 +8.8 51 +21 +22 комфорт 1006.8 973.8 +8.3
00 25.08 СЗ 2
{6}
10 км в посл. час ливневой дождь 8/6 600 м
[Cb cap Ac trans]
+21.4 +10.9 51 +23 +25 комфорт 1005.8 973.1
03 25.08 С 3
{6}
10 км дым 8/6 600 м
[Cb cap Ac trans]
+23.5 +8.5 38 +24 +25 комфорт 1004.3 971.9
06 25.08 СЗ 1
{6}
10 км в посл. час ливневой дождь 9/9 600 м
[Cb cap]
+19.3 +13.9 71 +22 +22 комфорт 1004.1 971.3
09 25.08 ЮВ 2
{6}
20 км {ливн. осадки} 9/9 600 м
[Cb cap]
+13.7 +11.9 89 +13 +13 1005.3 971.7 +25.4 0.4
12 25.08 ЮВ 3
{5}
20 км {ливн. осадки} 8/8 600 м
[Cb cap]
+10.3 +9.3 94 +8 +8 1005.6 971.7
15 25.08 Ю 2
{5}
20 км 8/8 600 м
[Cb cap]
+10.7 +9.3 91 +9 +9 1005.0 971.2
18 25.08 ЮВ 2
{4}
20 км 9/4 600 м
[Cb cap Ac trans]
+8.7 +8.2 97 +7 +7 1005.2 971.1
21 25.08 Ю 3
{6}
20 км 8/0
[Ac trans Ci fib]
+16.9 +7.6 54 +17 +18 1004.2 971.1 +5.7
00 26.08 Ю 2
{6}
20 км 8/4 600 м
[Sc Ci fib]
+20.4 +6.1 39 +22 +25 комфорт 1003.5 970.7

 

Местоположение метеостанции Баимка (Чукотка, Россия): широта 66.53 долгота 164.20 высота над уровнем моря 287 м.

В архиве по умолчанию представлена погода в Баимке за последнюю неделю. Архивные данные за месяц целиком и за предыдущие месяцы, начиная с января 2011 года, Вы можете получить, выбрав интересующий диапазон дат из раскрывающегося списка и нажав кнопку "Ввод!".


*Определитесь, кто Вы:
робот инопланетянин человек

Внимание! Время в таблицах - всемирное. Для получения местного времени необходимо прибавить поправку, которая равна 12 ч.

Смотрите также архив погоды в соседних городах и на ближайших метеорологических станциях:

Погода в Островном (Чукотка, Россия) (177 км)
Погода в Илирнее (Чукотка, Россия) (180 км)
Погода в Билибино (Чукотка, Россия) (194 км)
Погода в Омолоне (Чукотка, Россия) (222 км)
Погода в Константиновской (Чукотка, Россия) (224 км)
Погода в Анюйске (Чукотка, Россия) (233 км)
Погода в Верхне-Пенжино (Камчатский край, Россия) (257 км)
Погода в Черском (Якутия, Россия) (274 км)
Погода в Кегали (Магаданская область, Россия) (294 км)
Погода в Колымской (Якутия, Россия) (340 км)

Пояснения к столбцам:

Ветер - указаны скорость ветра в м/с - средняя за 10 мин, порывы в срок и между сроками (в фигурных скобках) и направление, откуда дует ветер: С - северный, СВ - северо-восточный, В - восточный, ЮВ - юго-восточный, Ю - южный, ЮЗ - юго-западный, З - западный, СЗ - северо-западный.
Видимость - горизонтальная дальность видимости в метрах или километрах. При видимости от 1 до 10 км при отсутствии осадков обычно наблюдается дымка, при ухудшении видимости до 1 км и менее - туман. В сухую погоду видимость может ухудшаться дымом, пылью или мглою.
Явления - указаны атмосферные явления, наблюдавшиеся в срок или в последний час перед сроком; фигурными скобками обозначены явления, наблюдавшиеся между сроками (за 1-3 часа до срока); квадратными скобками обозначены град или гололедные отложения с указанием их диаметра в мм.
Облачность - указаны через наклонную черту общая и нижняя облачность в баллах и высота нижней границы облаков в метрах; квадратными скобками обозначены формы облаков: Ci - перистые, Cs - перисто-слоистые, Cc - перисто-кучевые, Ac - высококучевые, As - высокослоистые, Sc - слоисто-кучевые, Ns - слоисто-дождевые, Cu - кучевые, Cb - кучево-дождевые. Подробнее классификацию облаков см. в Атласе облаков (PDF).
T - Температура воздуха - температура, измеренная на высоте 2 м над землей.
Td - Температура точки росы - температура, при понижении до которой содержащийся в воздухе водяной пар достигнет насыщения.
f - Относительная влажность воздуха - влажноcть воздуха, измеренная на высоте 2 м над землей.
Te - Эффективная температура - температура, которую ощущает одетый по сезону человек в тени. Характеристика душности погоды. При расчете учитывается влияние влажности воздуха и скорости ветра на теплоощущения человека.
Tes - Эффективная температура на солнце - температура, которую ощущает человек, с поправкой на солнечный нагрев. Характеристика знойности погоды. Зависит от высоты солнца над горизонтом, облачности и скорости ветра. Ночью, в пасмурную погоду, а также при ветре 12 м/с и более поправка равна нулю.
P - Атмосферное давление - приведенное к уровню моря атмосферное давление.
Po - Атмосферное давление - измеренное на уровне метеостанции атмосферное давление.
Tmin - Минимальная температура - минимум температуры воздуха на высоте 2 м над землей.
Tmax - Максимальная температура - максимум температуры воздуха на высоте 2 м над землей.
R - Количество осадков - Количество выпавших осадков за период времени, мм. При наведении курсора мыши на число - период времени, за который выпало указанное количество осадков.
R24 - Количество осадков - Количество выпавших осадков за 24 часа, мм.
S - Снежный покров - Высота снежного покрова, см. При наведении курсора мыши на число - состояние снежного покрова и степень покрытия местности в баллах.